This demonstration page uses our WeatherBlox Daily Observations layout. Learn more.

Left ArrowRight Arrow

34.74481, -87.66753

Hourly Observations for January 8, 2022

Temp ( °F °C ) Dew Point ( °F °C ) Humidity (%) Winds ( mph kmh ) Pressure ( in mb ) Visibility ( mi km ) Precip ( " mm )
12:53 am 00:53 Clear 25 -3.9 20 -6.7 81 81 E 3 6 30.34 1028 10 16 0.00 0.00
1:53 am 01:53 Clear 26 -3.3 21 -6.1 81 81 E 3 6 30.33 1027 10 16 0.00 0.00
2:53 am 02:53 Clear 25 -3.9 21 -6.1 85 85 Calm 30.35 1028 10 16 0.00 0.00
3:53 am 03:53 Clear 25 -3.9 21 -6.1 85 85 ESE 3 6 30.34 1028 10 16 0.00 0.00
4:53 am 04:53 Clear 26 -3.3 22 -5.6 84 84 ESE 5 7 30.35 1028 10 16 0.00 0.00
5:53 am 05:53 Clear 26 -3.3 22 -5.6 84 84 ESE 3 6 30.36 1028 10 16 0.00 0.00
6:53 am 06:53 Mostly Clear 27 -2.8 22 -5.6 81 81 ESE 6 9 30.37 1029 10 16 0.00 0.00
7:53 am 07:53 Cloudy 31 -0.6 22 -5.6 69 69 SE 7 11 30.38 1029 10 16 0.00 0.00
8:53 am 08:53 Sunny 36 2.2 25 -3.9 64 64 SE 8 13 30.38 1029 10 16 0.00 0.00
9:53 am 09:53 Partly Cloudy 41 5 26 -3.3 55 55 SE 9 15 30.39 1029 10 16 0.00 0.00
10:53 am 10:53 Cloudy 47 8.3 28 -2.2 48 48 SSE 9 15 30.37 1029 10 16 0.00 0.00
11:53 am 11:53 Partly Cloudy 51 10.6 29 -1.7 43 43 S 13 20 30.33 1027 10 16 0.00 0.00
12:53 pm 12:53 Mostly Cloudy 54 12.2 30 -1.1 40 40 SSE 14 22 30.29 1026 10 16 0.00 0.00
1:53 pm 13:53 Mostly Cloudy 58 14.4 30 -1.1 35 35 SSE 14 22 30.28 1025 10 16 0.00 0.00
2:53 pm 14:53 Mostly Sunny 57 13.9 30 -1.1 36 36 SSE 15 24 30.24 1024 10 16 0.00 0.00
3:53 pm 15:53 Mostly Sunny 57 13.9 30 -1.1 36 36 SSE 16 26 30.23 1024 10 16 0.00 0.00
4:53 pm 16:53 Sunny 54 12.2 31 -0.6 42 42 SSE 12 19 30.24 1024 10 16 0.00 0.00
5:53 pm 17:53 Clear 52 11.1 31 -0.6 45 45 SE 14 22 30.24 1024 10 16 0.00 0.00
6:53 pm 18:53 Clear 51 10.6 31 -0.6 46 46 SE 8 13 30.26 1025 10 16 0.00 0.00
7:53 pm 19:53 Clear 50 10 32 0 50 50 SE 6 9 30.27 1025 10 16 0.00 0.00
8:53 pm 20:53 Mostly Cloudy 53 11.7 34 1.1 48 48 SSE 12 19 30.27 1025 10 16 0.00 0.00
9:53 pm 21:53 Mostly Cloudy 53 11.7 35 1.7 51 51 SSE 22 35 30.27 1025 10 16 0.00 0.00
10:20 pm 22:20 Mostly Cloudy 54 12.2 36 2.2 51 51 SSE 18 30 30.25 1024 10 16 0.00 0.00
10:53 pm 22:53 Cloudy 54 12.2 36 2.2 51 51 SSE 13 20 30.27 1025 10 16 0.00 0.00
11:53 pm 23:53 Cloudy 55 12.8 39 3.9 55 55 SSE 15 24 30.24 1024 10 16 0.00 0.00

Powered by AerisWeather